Location: Caltech
(34.1382°N, 118.1253°W)
Time: 15:57:34
(UTC-08:00)

Iridium 75 - Visible Passes

Search period start: 24 February 2017 00:00
Search period end: 06 March 2017 00:00
Orbit: 776 x 779 km, 86.4° (Epoch: 24 February)

Date Brightness Start Highest point End Pass type
(mag) Time Alt. Az. Time Alt. Az. Time Alt. Az.
24 Feb 6.7 18:35:14 10° NNE 18:39:48 30° E 18:44:21 10° SE visible
24 Feb 8.1 20:16:10 10° NNW 20:20:19 24° W 20:24:28 10° SW visible
25 Feb 7.0 19:42:00 10° NNW 19:46:59 47° W 19:51:57 10° SSW visible
26 Feb 5.9 19:08:18 10° N 19:13:33 88° E 19:18:45 10° S visible
27 Feb 6.3 18:35:00 10° NNE 18:39:59 45° E 18:44:57 10° SSE visible
27 Feb 8.8 20:17:03 10° NW 20:20:15 17° W 20:23:25 10° WSW visible
28 Feb 7.8 19:42:25 10° NNW 19:46:59 32° W 19:51:32 10° SW visible
01 Mar 6.5 19:08:27 10° N 19:13:36 62° W 19:18:44 10° SSW visible
02 Mar 6.0 18:34:55 10° N 18:40:07 68° E 18:45:18 10° S visible
02 Mar 9.3 20:19:00 10° WNW 20:20:07 11° WNW 20:21:15 10° W visible
03 Mar 9.2 05:49:49 10° ESE 05:52:36 15° E 05:55:22 10° NE visible
03 Mar 8.5 19:43:04 10° NW 19:46:56 21° W 19:50:48 10° SW visible
04 Mar 7.4 19:08:45 10° NNW 19:13:37 41° W 19:18:29 10° SSW visible
05 Mar 6.2 18:34:58 10° N 18:40:13 81° W 18:45:25 10° S visible
